JST712 YMHB-YMML

Flight info

Callsign JST712
Flight time N/A
Altitude 38000
Route LATUM H111 LT H215 RAZZI
Aircraft A320/M-SDE3FGHIRWY/LB1

Departure

Time 2026-04-21 14:29
Airport Hobart International Airport (YMHB)

Arrival

Time N/A
Airport Melbourne Airport (YMML)
Time Latitude Longitude Altitude Speed Heading
2026-04-21 13:56 -42.83745 147.50699 22 ft 0 kts 235°
2026-04-21 14:15 -42.83744 147.50699 22 ft 0 kts 235°
2026-04-21 14:17 -42.83744 147.50700 22 ft 0 kts 235°
2026-04-21 14:20 -42.83742 147.50705 22 ft 2 kts 235°
2026-04-21 14:20 -42.83731 147.50727 24 ft 3 kts 235°
2026-04-21 14:21 -42.83719 147.50748 24 ft 3 kts 210°
2026-04-21 14:21 -42.83704 147.50753 23 ft 3 kts 152°
2026-04-21 14:21 -42.83687 147.50737 22 ft 3 kts 134°
2026-04-21 14:21 -42.83681 147.50728 22 ft 0 kts 135°
2026-04-21 14:24 -42.83695 147.50749 23 ft 8 kts 126°
2026-04-21 14:24 -42.83679 147.50838 22 ft 12 kts 67°
2026-04-21 14:24 -42.83713 147.50942 22 ft 14 kts 133°
2026-04-21 14:24 -42.83786 147.51041 22 ft 16 kts 134°
2026-04-21 14:25 -42.83856 147.51149 22 ft 13 kts 113°
2026-04-21 14:25 -42.83813 147.51262 23 ft 15 kts 46°
2026-04-21 14:25 -42.83760 147.51373 22 ft 11 kts 111°
2026-04-21 14:25 -42.83822 147.51460 24 ft 23 kts 134°
2026-04-21 14:26 -42.83943 147.51623 24 ft 26 kts 134°
2026-04-21 14:26 -42.84076 147.51805 23 ft 28 kts 135°
2026-04-21 14:26 -42.84219 147.51999 23 ft 29 kts 135°
2026-04-21 14:26 -42.84358 147.52188 24 ft 29 kts 135°
2026-04-21 14:27 -42.84485 147.52309 22 ft 19 kts 163°
2026-04-21 14:27 -42.84562 147.52370 23 ft 9 kts 130°
2026-04-21 14:27 -42.84547 147.52424 24 ft 6 kts 21°
2026-04-21 14:27 -42.84529 147.52415 24 ft 5 kts 330°
2026-04-21 14:28 -42.84517 147.52400 22 ft 0 kts 317°
2026-04-21 14:28 -42.84488 147.52364 22 ft 26 kts 316°
2026-04-21 14:28 -42.84185 147.51956 23 ft 93 kts 315°
2026-04-21 14:28 -42.83598 147.51159 25 ft 142 kts 315°
2026-04-21 14:29 -42.82871 147.50184 450 ft 149 kts 317°
2026-04-21 14:29 -42.82125 147.49177 1086 ft 149 kts 318°
2026-04-21 14:29 -42.81393 147.48182 1684 ft 149 kts 319°
2026-04-21 14:29 -42.80618 147.47136 1988 ft 168 kts 319°
2026-04-21 14:30 -42.79721 147.45929 2240 ft 193 kts 319°
2026-04-21 14:30 -42.78711 147.44560 2595 ft 217 kts 318°
2026-04-21 14:30 -42.77588 147.43020 3083 ft 238 kts 318°
2026-04-21 14:30 -42.76405 147.41388 3919 ft 244 kts 317°
2026-04-21 14:31 -42.75204 147.39727 4833 ft 248 kts 317°
2026-04-21 14:31 -42.73979 147.38038 5703 ft 254 kts 317°
2026-04-21 14:31 -42.72720 147.36310 6556 ft 259 kts 317°
2026-04-21 14:31 -42.71457 147.34581 7370 ft 264 kts 316°
2026-04-21 14:32 -42.70156 147.32806 8168 ft 268 kts 316°
2026-04-21 14:32 -42.68818 147.30984 8973 ft 273 kts 316°
2026-04-21 14:32 -42.67464 147.29139 9769 ft 278 kts 316°
2026-04-21 14:32 -42.66078 147.27246 10372 ft 291 kts 316°
2026-04-21 14:33 -42.64603 147.25231 10681 ft 311 kts 316°
2026-04-21 14:33 -42.63024 147.23078 10991 ft 328 kts 316°
2026-04-21 14:33 -42.61398 147.20931 11605 ft 333 kts 322°
2026-04-21 14:33 -42.59400 147.19341 12261 ft 335 kts 340°
2026-04-21 14:34 -42.57106 147.18734 12939 ft 338 kts 359°
2026-04-21 14:34 -42.54769 147.19216 13603 ft 343 kts 18°
2026-04-21 14:34 -42.52645 147.20734 14270 ft 348 kts 33°
2026-04-21 14:34 -42.50644 147.22598 14863 ft 351 kts 33°
2026-04-21 14:35 -42.48620 147.24471 15451 ft 354 kts 33°
2026-04-21 14:35 -42.46582 147.26368 16035 ft 358 kts 33°
2026-04-21 14:35 -42.44542 147.28285 16604 ft 361 kts 33°
2026-04-21 14:35 -42.42473 147.30234 17181 ft 364 kts 34°
2026-04-21 14:36 -42.40381 147.32211 17760 ft 368 kts 34°
2026-04-21 14:36 -42.38271 147.34204 18332 ft 371 kts 34°
2026-04-21 14:36 -42.36136 147.36198 18879 ft 374 kts 31°
2026-04-21 14:36 -42.33797 147.37788 19383 ft 377 kts 19°
2026-04-21 14:37 -42.31271 147.38688 19901 ft 379 kts
2026-04-21 14:37 -42.28630 147.38875 20425 ft 381 kts 356°
2026-04-21 14:37 -42.25986 147.38379 20942 ft 384 kts 349°
2026-04-21 14:37 -42.23342 147.37737 21427 ft 387 kts 349°
2026-04-21 14:38 -42.20712 147.37105 21891 ft 390 kts 350°
2026-04-21 14:38 -42.18021 147.36464 22349 ft 394 kts 350°
2026-04-21 14:38 -42.15323 147.35822 22790 ft 397 kts 350°
2026-04-21 14:38 -42.13456 147.35376 23089 ft 400 kts 350°